Latest Weather Observations for Perth

IDW60801

Issued at 11:02 am WST Wednesday 1 April 2015 (issued every 30 minutes, with the page automatically refreshed every 10 minutes)

About weather observations | Map of weather stations | Latest weather observations for WA | Other Formats
Station Details ID: 009225 Name: PERTH METRO Lat: -31.92 Lon: 115.87 Height: 24.9 m
Data from the previous 72 hours. | See also: Recent months at Perth
Date/Time
WST
Temp
°C
App
Temp
°C
Dew
Point
Rel
Hum
%
Delta-T
°C
Wind Press
QNH
hPa
Press
MSL
hPa
Rain
since 9 am
mm
Dir
 
Spd
km/h
Gust
km/h
Spd
kts
Gust
kts
01/11:00am 23.6 22.7 12.6 50 6.3 E 9 19 5 10 1023.3 1023.2 0.0
01/10:30am 22.8 21.7 12.1 51 6.0 E 9 19 5 10 1023.5 1023.4 0.0
01/10:00am 21.1 19.9 11.7 55 5.2 SE 9 15 5 8 1023.9 1023.8 0.0
01/09:30am 20.7 19.5 11.6 56 5.1 ESE 9 13 5 7 1024.0 1023.9 0.0
01/09:00am 19.2 18.0 11.7 62 4.1 SE 9 19 5 10 1023.9 1023.8 0.0
01/08:30am 18.1 16.5 11.4 65 3.7 SE 11 17 6 9 1023.8 1023.7 0.0
01/08:00am 16.6 15.6 10.9 69 3.0 SSE 7 9 4 5 1023.9 1023.8 0.0
01/07:30am 15.5 14.4 10.7 73 2.5 SSE 7 11 4 6 1023.7 1023.6 0.0
01/07:00am 14.6 12.6 10.0 74 2.4 SSE 11 19 6 10 1023.5 1023.4 0.0
01/06:30am 14.5 12.4 9.9 74 2.4 S 11 22 6 12 1023.2 1023.1 0.0
01/06:00am 14.9 12.5 10.1 73 2.5 SSE 13 19 7 10 1023.1 1023.0 0.0
01/05:30am 15.1 13.0 9.9 71 2.7 SSE 11 17 6 9 1022.9 1022.8 0.0
01/05:00am 15.2 13.1 9.8 70 2.8 SSE 11 15 6 8 1022.7 1022.6 0.0
01/04:30am 15.4 12.9 9.7 69 3.0 S 13 20 7 11 1022.6 1022.5 0.0
01/04:00am 15.7 13.6 9.6 67 3.2 SSE 11 17 6 9 1022.6 1022.5 0.0
01/03:30am 15.9 13.9 10.0 68 3.1 SE 11 20 6 11 1022.5 1022.4 0.0
01/03:00am 15.8 14.6 11.6 76 2.3 SSE 9 11 5 6 1022.4 1022.3 0.0
01/02:30am 16.2 14.7 11.8 75 2.4 SSE 11 17 6 9 1022.2 1022.1 0.0
01/02:00am 16.5 15.3 12.7 78 2.1 S 11 17 6 9 1022.0 1021.9 0.0
01/01:30am 16.8 15.6 12.7 77 2.3 SSE 11 17 6 9 1021.7 1021.6 0.0
01/01:00am 17.3 15.8 13.2 77 2.3 S 13 20 7 11 1021.3 1021.2 0.0
01/12:30am 17.6 16.2 13.5 77 2.3 S 13 20 7 11 1021.1 1021.0 0.0
01/12:00am 17.8 16.9 13.7 77 2.3 S 11 17 6 9 1020.7 1020.6 0.0
 
Date/Time
WST
Temp
°C
App
Temp
°C
Dew
Point
Rel
Hum
%
Delta-T
°C
Wind Press
QNH
hPa
Press
MSL
hPa
Rain
since 9 am
mm
Dir
 
Spd
km/h
Gust
km/h
Spd
kts
Gust
kts
31/11:30pm 18.0 16.8 13.9 77 2.3 S 13 22 7 12 1020.7 1020.6 0.0
31/11:00pm 18.2 17.9 14.3 78 2.2 S 9 17 5 9 1020.6 1020.5 0.0
31/10:30pm 18.7 18.0 14.4 76 2.5 S 11 17 6 9 1020.5 1020.4 0.0
31/10:00pm 19.3 18.6 15.4 78 2.3 S 13 20 7 11 1020.4 1020.3 0.0
31/09:30pm 19.7 18.8 15.8 78 2.3 S 15 28 8 15 1020.2 1020.1 0.0
31/09:00pm 19.9 19.5 16.3 80 2.2 SSW 13 20 7 11 1020.0 1019.9 0.0
31/08:30pm 20.1 20.5 16.3 79 2.3 SSW 9 22 5 12 1019.8 1019.7 0.0
31/08:00pm 20.2 20.0 15.6 75 2.7 SSW 11 20 6 11 1019.5 1019.4 0.0
31/07:30pm 20.5 19.4 16.3 77 2.5 SSW 17 28 9 15 1019.3 1019.2 0.0
31/07:00pm 20.7 19.7 16.5 77 2.5 S 17 32 9 17 1018.8 1018.7 0.0
31/06:30pm 20.8 20.3 16.0 74 2.9 SSW 13 24 7 13 1018.5 1018.4 0.0
31/06:00pm 21.2 19.9 15.7 71 3.3 SSW 17 32 9 17 1018.1 1018.0 0.0
31/05:30pm 21.9 20.1 14.5 63 4.3 SSW 17 28 9 15 1017.7 1017.6 0.0
31/05:00pm 23.0 21.5 14.3 58 5.1 SSW 15 26 8 14 1017.4 1017.3 0.0
31/04:30pm 23.7 22.0 14.7 57 5.3 SSW 17 28 9 15 1017.2 1017.1 0.0
31/04:00pm 24.2 22.5 14.6 55 5.7 SSW 17 26 9 14 1016.9 1016.8 0.0
31/03:30pm 23.8 22.1 14.8 57 5.4 SW 17 26 9 14 1016.9 1016.8 0.0
31/03:00pm 23.0 20.8 14.8 60 4.9 SW 20 35 11 19 1016.9 1016.8 0.0
31/02:30pm 24.3 23.0 15.8 59 5.2 SW 17 28 9 15 1016.8 1016.7 0.0
31/02:00pm 23.8 22.2 15.0 57 5.2 WSW 17 30 9 16 1016.9 1016.8 0.0
31/01:30pm 23.6 21.6 14.0 55 5.6 WSW 17 24 9 13 1017.0 1016.9 0.0
31/01:00pm 24.1 23.1 14.5 55 5.7 SSW 13 19 7 10 1017.1 1017.0 0.0
31/12:30pm 24.2 22.5 13.7 52 6.1 SSW 15 26 8 14 1017.3 1017.2 0.0
31/12:00pm 23.5 22.3 13.9 55 5.6 SSW 13 24 7 13 1017.5 1017.4 0.0
31/11:30am 23.3 22.7 13.5 54 5.7 SSW 9 17 5 9 1017.7 1017.6 0.0
31/11:00am 22.9 21.6 13.7 56 5.3 SSW 13 20 7 11 1018.0 1017.9 0.0
31/10:30am 22.8 21.9 13.6 56 5.3 SW 11 20 6 11 1018.2 1018.1 0.0
31/10:00am 22.6 21.9 14.2 59 4.9 S 11 19 6 10 1018.2 1018.1 0.0
31/09:30am 21.8 22.0 14.7 64 4.2 SSW 7 15 4 8 1018.3 1018.2 0.0
31/09:00am 20.7 20.2 14.8 69 3.5 S 11 15 6 8 1018.1 1018.0 0.0
31/08:30am 20.0 19.8 14.8 72 3.0 S 9 13 5 7 1018.1 1018.0 0.0
31/08:00am 19.3 19.3 15.2 77 2.4 SSE 9 13 5 7 1017.7 1017.6 0.0
31/07:30am 18.1 18.5 14.8 81 1.9 S 6 9 3 5 1017.3 1017.2 0.0
31/07:00am 17.7 18.1 14.8 83 1.7 SE 6 11 3 6 1017.0 1016.9 0.0
31/06:30am 17.6 17.9 14.9 84 1.6 S 7 11 4 6 1016.8 1016.7 0.0
31/06:00am 17.5 17.4 15.0 85 1.5 S 9 13 5 7 1016.6 1016.5 0.0
31/05:30am 17.4 17.7 14.9 85 1.4 S 7 11 4 6 1016.5 1016.4 0.0
31/05:00am 17.7 17.9 14.8 83 1.7 SSE 7 13 4 7 1016.3 1016.2 0.0
31/04:30am 18.1 18.1 15.2 83 1.7 S 9 13 5 7 1016.2 1016.1 0.0
31/04:00am 18.2 18.9 15.5 84 1.6 S 6 9 3 5 1016.1 1016.0 0.0
31/03:30am 18.6 18.8 15.8 84 1.7 S 9 13 5 7 1015.9 1015.8 0.0
31/03:00am 18.5 19.3 15.9 85 1.5 S 6 7 3 4 1015.9 1015.8 0.0
31/02:30am 18.6 19.5 16.0 85 1.5 SSW 6 7 3 4 1016.0 1015.9 0.0
31/02:00am 18.8 19.5 16.0 84 1.7 SSW 7 9 4 5 1016.1 1016.0 0.0
31/01:30am 19.2 19.9 16.2 83 1.8 S 7 9 4 5 1016.3 1016.2 0.0
31/01:00am 19.5 20.3 16.3 82 1.9 S 7 13 4 7 1016.4 1016.3 0.0
31/12:30am 19.3 20.3 16.3 83 1.8 SSW 6 11 3 6 1016.6 1016.5 0.0
31/12:00am 19.5 20.6 16.5 83 1.8 S 6 9 3 5 1016.6 1016.5 0.0
 
Date/Time
WST
Temp
°C
App
Temp
°C
Dew
Point
Rel
Hum
%
Delta-T
°C
Wind Press
QNH
hPa
Press
MSL
hPa
Rain
since 9 am
mm
Dir
 
Spd
km/h
Gust
km/h
Spd
kts
Gust
kts
30/11:30pm 20.0 21.1 16.6 81 2.1 SSE 6 9 3 5 1017.0 1016.9 0.0
30/11:00pm 20.3 21.3 16.9 81 2.1 S 7 13 4 7 1017.3 1017.2 0.0
30/10:30pm 20.3 21.3 16.9 81 2.1 S 7 13 4 7 1017.6 1017.5 0.0
30/10:00pm 20.6 21.3 17.0 80 2.2 SW 9 13 5 7 1018.0 1017.9 0.0
30/09:30pm 20.8 21.6 17.2 80 2.2 SW 9 15 5 8 1017.9 1017.8 0.0
30/09:00pm 20.7 21.5 17.3 81 2.1 SW 9 17 5 9 1017.9 1017.8 0.0
30/08:30pm 20.9 21.8 17.5 81 2.1 SW 9 13 5 7 1018.0 1017.9 0.0
30/08:00pm 20.9 22.0 17.1 79 2.3 WSW 7 11 4 6 1018.1 1018.0 0.0
30/07:30pm 21.0 22.6 16.8 77 2.6 WSW 4 7 2 4 1017.5 1017.4 0.0
30/07:00pm 21.1 22.7 16.9 77 2.6 SW 4 7 2 4 1017.0 1016.9 0.0
30/06:30pm 21.3 22.4 17.1 77 2.6 SW 7 15 4 8 1016.5 1016.4 0.0
30/06:00pm 21.4 21.9 17.4 78 2.5 SW 11 19 6 10 1016.2 1016.1 0.0
30/05:30pm 21.7 22.5 17.3 76 2.7 SW 9 15 5 8 1016.2 1016.1 0.0
30/05:00pm 22.2 22.3 16.5 70 3.5 SSW 11 20 6 11 1016.0 1015.9 0.0
30/04:30pm 22.7 23.0 16.0 66 4.0 SSW 9 17 5 9 1015.9 1015.8 0.0
30/04:00pm 23.0 23.2 15.8 64 4.3 SW 9 20 5 11 1015.6 1015.5 0.0
30/03:30pm 23.2 22.5 16.5 66 4.1 SW 15 22 8 12 1015.2 1015.1 0.0
30/03:00pm 23.8 23.8 16.3 63 4.6 WSW 11 17 6 9 1015.4 1015.3 0.0
30/02:30pm 23.8 23.4 16.3 63 4.6 W 13 20 7 11 1015.5 1015.4 0.0
30/02:00pm 25.2 25.4 15.8 56 5.7 WSW 9 15 5 8 1014.9 1014.7 0.0
30/01:30pm 25.0 24.3 14.2 51 6.4 WSW 11 19 6 10 1014.9 1014.7 0.0
30/01:00pm 25.5 24.6 13.7 48 6.9 W 11 17 6 9 1015.1 1015.0 0.0
30/12:30pm 25.8 25.4 14.0 48 7.0 WNW 9 13 5 7 1015.1 1015.0 0.0
30/12:00pm 25.6 25.6 14.1 49 6.8 WSW 7 11 4 6 1015.3 1015.2 0.0
30/11:30am 26.8 26.3 12.8 42 8.2 W 7 11 4 6 1015.4 1015.3 0.0
30/11:00am 27.4 26.6 11.0 36 9.3 NNW 6 9 3 5 1015.7 1015.6 0.0
30/10:30am 26.3 26.1 10.5 37 8.9 NE 2 7 1 4 1016.3 1016.2 0.0
30/10:00am 26.0 25.3 12.1 42 8.0 NE 7 9 4 5 1016.3 1016.2 0.0
30/09:30am 24.9 23.7 10.4 40 8.1 NNE 7 13 4 7 1016.5 1016.4 0.0
30/09:00am 23.5 22.8 11.9 48 6.6 ENE 7 13 4 7 1016.3 1016.2 0.0
30/08:30am 22.3 21.5 11.7 51 5.9 ENE 7 11 4 6 1016.4 1016.3 0.0
30/08:00am 20.3 19.7 11.8 58 4.7 NE 6 9 3 5 1016.3 1016.2 0.0
30/07:30am 17.5 18.8 14.0 80 2.0 CALM 0 0 0 0 1016.2 1016.1 0.0
30/07:00am 14.8 15.8 13.2 90 0.9 CALM 0 0 0 0 1015.9 1015.8 0.0
30/06:30am 14.3 15.1 12.7 90 0.9 CALM 0 0 0 0 1015.8 1015.7 0.0
30/06:00am 14.4 15.2 12.6 89 1.0 CALM 0 0 0 0 1015.8 1015.7 0.0
30/05:30am 14.9 15.9 13.1 89 1.0 CALM 0 0 0 0 1015.5 1015.4 0.0
30/05:00am 14.5 15.0 12.7 89 1.0 WNW 2 6 1 3 1015.3 1015.2 0.0
30/04:30am 14.6 15.5 12.8 89 1.0 CALM 0 0 0 0 1015.1 1015.0 0.0
30/04:00am 14.8 15.7 12.8 88 1.1 CALM 0 0 0 0 1015.0 1014.8 0.0
30/03:30am 15.0 15.2 13.0 88 1.1 WSW 4 9 2 5 1015.1 1015.0 0.0
30/03:00am 15.0 15.7 13.5 91 0.8 SSW 2 6 1 3 1014.9 1014.7 0.0
30/02:30am 15.1 16.1 13.1 88 1.1 CALM 0 0 0 0 1015.3 1015.2 0.0
30/02:00am 15.4 16.4 13.2 87 1.2 CALM 0 0 0 0 1015.7 1015.6 0.0
30/01:30am 15.6 16.6 13.1 85 1.4 CALM 0 0 0 0 1016.1 1016.0 0.0
30/01:00am 15.8 16.6 12.7 82 1.7 CALM 0 0 0 0 1016.3 1016.2 0.0
30/12:30am 16.5 17.5 13.2 81 1.8 CALM 0 0 0 0 1016.6 1016.5 0.0
30/12:00am 16.8 17.8 13.1 79 2.1 CALM 0 0 0 0 1016.8 1016.7 0.0
 
Date/Time
WST
Temp
°C
App
Temp
°C
Dew
Point
Rel
Hum
%
Delta-T
°C
Wind Press
QNH
hPa
Press
MSL
hPa
Rain
since 9 am
mm
Dir
 
Spd
km/h
Gust
km/h
Spd
kts
Gust
kts
29/11:30pm 17.9 19.0 13.4 75 2.5 CALM 0 0 0 0 1016.9 1016.8 0.0
29/11:00pm 18.2 19.1 12.9 71 3.0 CALM 0 0 0 0 1017.0 1016.9 0.0
29/10:30pm 19.0 20.0 13.2 69 3.3 CALM 0 0 0 0 1017.1 1017.0 0.0
29/10:00pm 20.8 20.5 12.8 60 4.5 SSW 6 9 3 5 1017.3 1017.2 0.0
29/09:30pm 21.2 20.5 13.1 60 4.6 S 9 13 5 7 1017.5 1017.4 0.0
29/09:00pm 21.9 20.9 13.3 58 4.9 S 11 19 6 10 1017.5 1017.4 0.0
29/08:30pm 22.3 20.8 13.1 56 5.3 S 13 19 7 10 1017.4 1017.3 0.0
29/08:00pm 22.6 22.0 13.4 56 5.3 S 9 17 5 9 1017.4 1017.3 0.0
29/07:30pm 22.8 22.5 14.4 59 4.9 S 9 13 5 7 1017.4 1017.3 0.0
29/07:00pm 22.8 23.1 15.1 62 4.6 SSW 7 13 4 7 1017.2 1017.1 0.0
29/06:30pm 23.3 22.9 14.0 56 5.5 SSW 9 13 5 7 1017.1 1017.0 0.0
29/06:00pm 24.1 23.5 14.5 55 5.7 SSW 11 17 6 9 1017.0 1016.9 0.0
29/05:30pm 25.3 24.1 14.1 50 6.6 SSW 13 24 7 13 1016.8 1016.7 0.0
29/05:00pm 26.7 24.5 12.0 40 8.4 SSW 15 22 8 12 1016.8 1016.7 0.0
29/04:30pm 27.8 26.0 12.2 38 9.1 SW 13 20 7 11 1016.8 1016.7 0.0
29/04:00pm 29.0 27.0 11.6 34 10.0 SW 13 22 7 12 1016.7 1016.6 0.0
29/03:30pm 29.1 26.9 10.7 32 10.5 WSW 13 22 7 12 1016.6 1016.5 0.0
29/03:00pm 30.0 27.9 11.0 31 10.9 SW 13 24 7 13 1016.6 1016.5 0.0
29/02:30pm 30.1 27.5 10.6 30 11.1 SW 15 24 8 13 1017.0 1016.9 0.0
29/02:00pm 30.6 28.9 12.5 33 10.7 SW 13 20 7 11 1017.1 1017.0 0.0
29/01:30pm 30.3 28.2 11.3 31 11.0 WSW 13 24 7 13 1017.4 1017.3 0.0
29/01:00pm 30.2 29.0 11.7 32 10.7 W 9 15 5 8 1017.8 1017.7 0.0
29/12:30pm 29.9 27.8 8.3 26 11.9 NE 9 13 5 7 1018.2 1018.1 0.0
29/12:00pm 29.6 28.2 9.7 29 11.2 ESE 7 9 4 5 1018.7 1018.6 0.0
29/11:30am 29.4 28.3 10.0 30 10.9 NE 6 11 3 6 1019.1 1019.0 0.0

Other Formats:

Comma delimited format used in spreadsheet applications
http://www.bom.gov.au/fwo/IDW60801/IDW60801.94608.axf

JavaScript Object Notation format (JSON) in row-major order
http://www.bom.gov.au/fwo/IDW60801/IDW60801.94608.json